Tracking 19286 objects as of 18-Nov-2018
HD Live streaming from Space Station
objects crossing your sky now

NATO 3A

Track NATO 3A now!
NATO 3A is classified as:


NORAD ID: 8808
Int'l Code: 1976-035A
Perigee: 35,806.4 km
Apogee: 36,021.7 km
Inclination: 10.9 °
Period: 1,442.2 minutes
Semi major axis: 42285 km
RCS: 7.2313 m2 (large)
Launch date: April 22, 1976
Source: North Atlantic Treaty Organization (NATO)
Launch site: AIR FORCE EASTERN TEST RANGE (AFETR)
aabbcc
Your satellite tracking list
Your tracking list is empty




NASA's NSSDC Master Catalog

Two Line Element Set (TLE):
1  8808U 76035A   18321.72889779  .00000091  00000-0  00000+0 0  9996
2  8808  10.9222 321.1667 0025459 261.8786 125.9308  0.99844057719608
Source of the keplerian elements: AFSPC